Regional Weather Roundup
Issued by NWS Sterling, VA

Home | Current Version | Previous Version | Graphics & Text | Print | Product List | Glossary On
Versions: 1 2 3 4 5 6 7 8 9 10 11 12 13 14 15 16 17 18 19 20 21 22 23 24 25 26 27 28 29 30 31 32 33 34 35 36 37 38 39 40 41 42 43 44 45 46 47 48 49 50
000
ASUS41 KLWX 260210
RWRLWX

REGIONAL WEATHER ROUNDUP
NATIONAL WEATHER SERVICE BALTIMORE MD/WASHINGTON DC
1000 PM EDT MON MAY 25 2015

Note: "FAIR" indicates few or no clouds below 12,000 feet
with no significant weather and/or obstructions to visibility.
 TC=TEMPERATURE CELSIUS

 * =Non NWS site. Station does not report precipitation (e.g. rain,
    snow, etc.), thunder, or fog.

DCZ001-MDZ009-015-VAZ040>042-051-053>054-260300-
WASHINGTON METRO

CITY           SKY/WX    TMP DP  RH WIND       PRES   REMARKS
WASHINGTON NAT MOCLDY    74  63  68 S7        30.22R
DULLES         PTCLDY    74  56  53 S7        30.21R
ANDREWS AFB    CLEAR     70  61  73 S9        30.22R
FT BELVOIR     CLEAR     69  60  74 SE2       30.21R
QUANTICO       CLEAR     75  63  66 SW9       30.22R
COLLEGE PARK*  CLEAR     73  59  60 CALM      30.21R
LEESBURG*      CLEAR     75  61  60 S10G16    30.21S
GAITHERSBURG*  CLEAR     73  55  53 S6        30.25R

$$

MDZ006>007-011-014-260300-
BALTIMORE METRO

CITY           SKY/WX    TMP DP  RH WIND       PRES   REMARKS
BWI AIRPORT    PTCLDY    71  61  70 SE5       30.21R
MD SCIENCE CTR   N/A     73  61  65 MISG      30.22R
MARTIN STATE   CLEAR     73  63  68 MISG      30.23R
ANNAPOLIS      CLEAR     70  60  70 S15G25    30.22R
FORT MEADE*    CLEAR     70  61  73 SE6       30.24R

$$

MDZ012-015-019>023-260300-
MARYLAND EASTERN SHORE

CITY           SKY/WX    TMP DP  RH WIND       PRES   REMARKS
OCEAN CITY     CLEAR     66  59  78 VRB7      30.28R
SALISBURY      CLEAR     66  56  70 S10       30.27R
BAY BRIDGE AP*   N/A    N/A N/A N/A S10       30.23R
CAMBRIDGE*     CLEAR     72  55  56 S6        30.25R
EASTON*        CLEAR     73  58  59 S10G16    30.28R

$$

MDZ017>025-260300-
SOUTHERN MARYLAND

CITY           SKY/WX    TMP DP  RH WIND       PRES   REMARKS
PATUXENT RIVER CLEAR     70  58  65 S8        30.24R
ST INIGOES     CLEAR     70  62  76 SE10      30.24R
LEONARDTOWN*   CLEAR     68  57  68 SE5       30.26R

$$

MDZ003>005-260300-
NORTH CENTRAL MARYLAND

CITY           SKY/WX    TMP DP  RH WIND       PRES   REMARKS
FREDERICK*     CLEAR     72  61  68 S3        30.22R
HAGERSTOWN APT CLEAR     76  57  51 S13       30.17R
WESTMINSTER*   CLEAR     73  59  60 S9        30.22R

$$

MDZ501>502-260300-
WESTERN MARYLAND

CITY           SKY/WX    TMP DP  RH WIND       PRES   REMARKS
OAKLAND*       CLEAR     66  54  63 S5        30.25S
CUMBERLAND*    CLEAR     73  59  60 S3        30.19R

$$

VAZ025>031-260300-
SHENANDOAH VALLEY

CITY           SKY/WX    TMP DP  RH WIND       PRES   REMARKS
WINCHESTER*    CLEAR     73  50  43 S6        30.19R
FRONT ROYAL*   FAIR      73  55  53 SW5       30.19R
LURAY*         FAIR      72  59  64 SW6       30.21S
NEW MARKET*    FAIR      72  56  57 SW5       30.20R
STAUNTON*      CLEAR     70  54  56 S5        30.25S
WAYNESBORO*    FAIR      70  55  59 S7        30.25S

$$

WVZ021-048>050-054>055-260300-
EASTERN WEST VIRGINIA PANHANDLE

CITY           SKY/WX    TMP DP  RH WIND       PRES   REMARKS
MARTINSBURG    CLEAR     73  57  57 S6        30.18R
PETERSBURG*    CLEAR     74  56  53 E5        30.19R

$$

VAZ036>039-050-260300-
CENTRAL FOOTHILLS

CITY           SKY/WX    TMP DP  RH WIND       PRES   REMARKS
CHARLOTTESVILL CLEAR     69  55  60 S6        30.22R
CULPEPER*      CLEAR     67  58  71 CALM      30.22R
ORANGE*        CLEAR     68  57  68 CALM      30.24R
GORDONSVILLE*  FAIR      65  58  78 CALM      30.22R
WARRENTON*     FAIR      73  60  63 S5        30.21R

$$

VAZ055>057-260300-
NORTH AND CENTRAL PIEDMONT

CITY           SKY/WX    TMP DP  RH WIND       PRES   REMARKS
FREDERICKSBRG* CLEAR     72  60  66 S5        30.22R
STAFFORD*      CLEAR     69  57  66 S3        30.26R

$$

NCZ024-NYZ072-PAZ021-071-VAZ022-071-260300-
OTHER REGIONAL OBSERVATIONS

CITY           SKY/WX    TMP DP  RH WIND       PRES   REMARKS
NEW YORK CITY  PTCLDY    77  55  46 VRB6      30.21R
PHILADELPHIA   PTCLDY    75  59  57 S9        30.22R
PITTSBURGH     MOCLDY    77  60  55 SW7       30.13R
ROANOKE        CLEAR     72  56  57 CALM      30.27R
RICHMOND       PTCLDY    71  57  61 SE3       30.25R
RALEIGH        PTCLDY    74  55  51 S5        30.27R

$$

ANZ530>537-260300-
MARINE OBSERVATIONS

STATION/POSITION TIME  TEMP    WIND        PRES
                       AIR SEA DIR/SP/G
                 (UTC) (F)     (DEG/KT/KT) (MB)
THOMAS PT LIGHT  0200   70 68  170/ 23/ 26 1023.7R
BALT KEY BRIDGE  0100   73     160/ 15/ 17 1022.0S
LEWISETTA        0100   71 71              1023.5R
SOLOMONS ISLAND  0100      70                N/A
PINEY POINT      0100          180/ 13/ 15   N/A

$$




USA.gov is the U.S. government's official web portal to all federal, state and local government web resources and services.